The Dalles, WA

12:09 AM PDT on July 24, 2019 (GMT -0700)
Columbia Gorge Regional-The Dalles

Weather History for KDLS - May, 2019

Change the Weather History Date:

Saturday, May 18, 2019

  Actual Average Record
Temperature  
Mean Temperature 59 °F -  
Max Temperature 75 °F 74 °F 97 °F (1968)
Min Temperature 43 °F 49 °F 36 °F (1966)
Degree Days  
Heating Degree Days 6    
Growing Degree Days 9 (Base 50)    
Moisture  
Dew Point 43 °F    
Average Humidity 63    
Maximum Humidity 93    
Minimum Humidity 27    
Precipitation  
Precipitation 0.12 in - - ()
Sea Level Pressure  
Sea Level Pressure 29.78 in    
Wind  
Wind Speed 5 mph (East)    
Max Wind Speed 16 mph    
Max Gust Speed 26 mph    
Visibility 10 miles    
Events Rain    
Averages and records for this station are not official NWS values.
T = Trace of Precipitation, MM = Missing Value Source: NWS Daily Summary

Daily Weather History Graph

Daily Weather History Graph

Search for Another Location

Airport or City:

Astronomy

May. 18, 2019 Rise Set
Actual Time 5:30 AM PDT 8:32 PM PDT
Civil Twilight 4:55 AM PDT 9:07 PM PDT
Nautical Twilight 4:10 AM PDT 9:53 PM PDT
Astronomical Twilight 3:16 AM PDT 10:47 PM PDT
Moon 8:30 PM PDT (5/18) 5:45 AM PDT (5/18)
Length of Visible Light 16h 12m
Length of Day
15h 01m
Full, 100% of the Moon is Illuminated
May 18
Full
May 18
Full
May 26
Last Quarter
Jun 3
New
Jun 9
First Quarter

Hourly Weather History & Observations

Time (PDT) Temp. Windchill Dew Point Humidity Pressure Visibility Wind Dir Wind Speed Gust Speed Precip Events Conditions
12:53 AM 48.9 °F - 41.0 °F 74% 29.94 in 10.0 mi WSW 5.8 mph - N/A   Clear
1:53 AM 48.0 °F - 41.0 °F 77% 29.93 in 10.0 mi SSW 3.5 mph - N/A   Clear
2:53 AM 45.0 °F 41.8 °F 39.0 °F 80% 29.94 in 10.0 mi East 5.8 mph - N/A   Partly Cloudy
3:53 AM 44.1 °F 40.1 °F 39.0 °F 82% 29.93 in 10.0 mi ESE 6.9 mph - N/A   Partly Cloudy
4:53 AM 43.0 °F 41.3 °F 37.9 °F 82% 29.92 in 10.0 mi ENE 3.5 mph - N/A   Clear
5:53 AM 44.1 °F - 39.0 °F 82% 29.92 in 10.0 mi Calm Calm - N/A   Clear
6:53 AM 45.0 °F - 41.0 °F 86% 29.92 in 10.0 mi Calm Calm - N/A   Clear
7:53 AM 48.9 °F - 41.0 °F 74% 29.90 in 10.0 mi Calm Calm - N/A   Clear
8:53 AM 53.1 °F - 42.1 °F 66% 29.88 in 10.0 mi Calm Calm - N/A   Clear
9:53 AM 57.9 °F - 43.0 °F 58% 29.85 in 10.0 mi Calm Calm - N/A   Clear
10:53 AM 63.0 °F - 43.0 °F 48% 29.82 in 10.0 mi Calm Calm - N/A   Clear
11:53 AM 66.0 °F - 42.1 °F 42% 29.79 in 10.0 mi Calm Calm - N/A   Partly Cloudy
12:53 PM 71.1 °F - 41.0 °F 34% 29.75 in 10.0 mi ENE 10.4 mph - N/A   Clear
1:53 PM 73.0 °F - 42.1 °F 33% 29.72 in 10.0 mi ENE 12.7 mph - N/A   Clear
2:53 PM 75.0 °F - 39.0 °F 27% 29.69 in 10.0 mi ENE 11.5 mph - N/A   Clear
3:53 PM 72.0 °F - 37.9 °F 29% 29.64 in 10.0 mi ENE 9.2 mph - N/A   Clear
4:53 PM 72.0 °F - 39.0 °F 30% 29.62 in 10.0 mi ESE 10.4 mph - N/A   Clear
5:51 PM 64.4 °F - 46.4 °F 52% 29.64 in 10.0 mi SW 15.0 mph 26.5 mph 0.00 in Rain Light Rain
5:53 PM 63.0 °F - 48.0 °F 58% 29.65 in 10.0 mi SW 12.7 mph 23.0 mph 0.00 in Rain Light Rain
6:53 PM 60.1 °F - 50.0 °F 69% 29.68 in 10.0 mi Calm Calm - 0.05 in Rain Light Rain
7:53 PM 57.0 °F - 51.1 °F 81% 29.66 in 7.0 mi NE 16.1 mph - 0.07 in Rain Light Rain
8:53 PM 59.0 °F - 48.9 °F 69% 29.66 in 10.0 mi SSE 5.8 mph - 0.00 in   Overcast
9:53 PM 57.0 °F - 51.1 °F 81% 29.68 in 10.0 mi WNW 3.5 mph - 0.00 in   Overcast
11:53 PM 54.0 °F - 52.0 °F 93% 29.67 in 10.0 mi NW 4.6 mph - 0.00 in   Scattered Clouds